Stations météo

Publicité
Ouessant, France (7100): Température de l'air & dewpoint: 20.03.2017 09:00:00 - 26.03.2017 09:00:00 (CEST)Ouessant, France (7100): Vitesse du vent & gusts: 20.03.2017 09:00:00 - 26.03.2017 09:00:00 (CEST)Ouessant, France (7100): Direction du vent: 20.03.2017 09:00:00 - 26.03.2017 09:00:00 (CEST)Ouessant, France (7100): reduced air pressure: 20.03.2017 09:00:00 - 26.03.2017 09:00:00 (CEST)Ouessant, France (7100): visibility: 20.03.2017 09:00:00 - 26.03.2017 09:00:00 (CEST)Ouessant, France (7100): Quantités de précipitations: 20.03.2017 09:00:00 - 26.03.2017 09:00:00 (CEST)
Date & Time tt [°C] td [°C] ff [km/h] ff [knt] fx [km/h] fx [knt] dd ppp [hPa] vv [km] rr [mm]
26.03.2017 09:00:00 8,4 6,9 39 21 51 28 E 1015,4 - 0,0
26.03.2017 08:00:00 8,6 6,7 41 22 49 26 E 1015,0 4,0 0,0
26.03.2017 07:00:00 8,7 6,8 41 22 51 28 E 1014,9 - 0,0
26.03.2017 06:00:00 9,0 7,0 43 23 63 34 E 1014,9 - 0,0
26.03.2017 05:00:00 9,0 7,1 51 27 69 37 E 1014,9 - 0,0
26.03.2017 04:00:00 9,1 6,9 53 28 71 39 E 1015,4 - 0,0
26.03.2017 03:00:00 9,4 6,8 51 28 75 41 E 1015,6 - 0,0
26.03.2017 02:00:00 9,6 6,7 55 30 77 42 ENE 1015,8 10 0,0
26.03.2017 01:00:00 9,8 7,0 54 29 81 44 ENE 1016,4 - 0,0
26.03.2017 00:00:00 10,0 6,7 59 32 87 47 ENE 1016,7 - 0,0
25.03.2017 23:00:00 10,2 6,2 66 35 99 54 ENE 1016,4 10 0,0
25.03.2017 22:00:00 10,5 5,0 79 43 106 58 ENE 1016,0 - 0,0
25.03.2017 21:00:00 10,5 5,0 66 36 104 56 ENE 1015,6 - 0,0
25.03.2017 20:00:00 10,9 4,6 72 39 111 60 ENE 1015,6 10 0,0
25.03.2017 19:00:00 11,0 5,5 64 34 103 55 NE 1016,2 - 0,0
25.03.2017 18:00:00 11,0 7,1 61 33 97 52 ENE 1017,2 - 0,0
25.03.2017 17:00:00 10,9 7,2 65 35 102 55 NE 1017,7 - 0,0
25.03.2017 16:00:00 11,5 8,0 58 31 83 45 NE 1018,9 - 0,0
25.03.2017 15:00:00 11,4 7,9 59 32 91 49 ENE 1019,5 - 0,0
25.03.2017 14:00:00 11,4 8,4 61 33 92 50 ENE 1020,2 - 0,0
25.03.2017 13:00:00 11,3 8,9 56 31 92 50 ENE 1020,8 - 0,0
25.03.2017 12:00:00 10,6 8,5 62 34 87 47 ENE 1021,3 - 0,0
25.03.2017 11:00:00 10,6 8,7 57 31 83 45 ENE 1021,4 6 0,0
25.03.2017 10:00:00 10,1 8,7 50 27 76 41 ENE 1021,9 - 0,0
25.03.2017 09:00:00 9,9 8,5 50 27 78 42 ENE 1022,2 - 0,0
25.03.2017 08:00:00 9,6 8,0 53 29 82 44 ENE 1022,4 6 0,0
25.03.2017 07:00:00 9,7 8,5 53 29 79 42 ENE 1022,4 - 0,0
25.03.2017 06:00:00 9,9 8,7 39 21 72 39 ENE 1023,4 - 0,0
25.03.2017 05:00:00 10,0 8,6 50 27 76 41 ENE 1023,6 - 0,0
25.03.2017 04:00:00 9,8 8,4 44 24 62 34 ENE 1023,9 - 0,0
25.03.2017 03:00:00 9,8 8,2 45 25 58 32 ENE 1024,8 - 0,0
25.03.2017 02:00:00 9,9 8,5 40 22 61 33 ENE 1025,1 8 0,0
25.03.2017 01:00:00 10,0 8,8 46 25 64 35 E 1025,4 - 0,0
25.03.2017 00:00:00 10,0 8,8 44 24 61 33 ENE 1025,7 - 0,0
24.03.2017 23:00:00 10,0 8,6 45 24 59 32 ENE 1025,8 8 0,0
24.03.2017 22:00:00 10,1 8,7 45 24 64 34 ENE 1025,2 - 0,0
24.03.2017 21:00:00 10,0 8,8 40 21 53 29 ENE 1024,7 - 0,0
24.03.2017 20:00:00 10,1 7,9 36 19 53 28 ENE 1024,4 10 0,0
24.03.2017 19:00:00 10,0 7,2 37 20 54 29 NE 1024,1 - 0,0
24.03.2017 18:00:00 11,4 6,7 35 19 51 27 NE 1024,0 - 0,0
24.03.2017 17:00:00 11,5 6,4 31 17 44 24 NE 1023,7 20 0,0
24.03.2017 16:00:00 11,2 6,7 32 17 47 26 ENE 1023,8 - 0,0
24.03.2017 15:00:00 11,6 6,9 29 16 41 22 ENE 1024,3 - 0,0
24.03.2017 14:00:00 10,9 5,6 23 13 41 22 E 1023,8 20 0,0
24.03.2017 13:00:00 11,3 6,0 33 18 42 23 E 1023,2 - 0,0
24.03.2017 12:00:00 10,2 6,5 35 19 46 25 E 1022,9 - 0,0
24.03.2017 11:00:00 9,1 5,8 40 21 55 30 E 1021,9 20 0,0
24.03.2017 10:00:00 8,1 5,2 38 20 50 27 E 1020,9 - 0,0
24.03.2017 09:00:00 7,3 5,1 42 23 54 29 ESE 1019,8 - 0,0
24.03.2017 08:00:00 7,0 5,5 34 19 47 26 E 1018,6 20 0,0
24.03.2017 07:00:00 7,4 6,2 35 19 44 24 E 1017,2 - 0,0
24.03.2017 06:00:00 7,6 6,2 30 16 44 24 E 1016,3 - 0,0
24.03.2017 05:00:00 7,6 6,4 35 19 43 23 E 1016,0 - 0,0
24.03.2017 04:00:00 7,9 6,2 29 16 35 19 E 1015,5 - 0,0
24.03.2017 03:00:00 8,0 6,1 23 13 30 16 E 1015,0 - 0,0
24.03.2017 02:00:00 7,9 6,2 21 11 37 20 E 1014,9 15 0,0
24.03.2017 01:00:00 8,2 6,3 32 17 42 23 E 1014,5 - 0,0
24.03.2017 00:00:00 8,1 6,1 30 16 39 21 E 1013,7 - 0,0
23.03.2017 23:00:00 8,1 6,1 25 14 33 18 E 1012,8 - 0,0
23.03.2017 22:00:00 7,9 5,9 22 12 29 16 E 1012,1 - 0,0
23.03.2017 21:00:00 7,6 5,7 19 10 32 17 NNE 1011,7 - 0,0
23.03.2017 20:00:00 7,4 5,7 20 11 38 21 NE 1011,0 15 0,0
23.03.2017 19:00:00 7,6 5,9 29 16 46 25 NNE 1010,6 - 0,4
23.03.2017 18:00:00 7,8 5,3 32 17 55 30 N 1010,1 - 0,4
23.03.2017 17:00:00 9,0 5,7 32 17 52 28 N 1009,9 20 0,0
23.03.2017 16:00:00 8,9 5,3 35 19 55 30 N 1010,0 - 0,0
23.03.2017 15:00:00 8,8 4,8 41 22 53 28 N 1010,4 - 0,0
23.03.2017 14:00:00 9,9 5,5 26 14 45 24 NNE 1010,5 20 0,0
23.03.2017 13:00:00 8,3 4,7 34 18 64 35 N 1010,2 - 0,0
23.03.2017 12:00:00 8,5 4,9 34 18 66 36 NE 1010,5 - 0,0
23.03.2017 11:00:00 8,7 6,5 26 14 48 26 ENE 1009,9 15 0,6
23.03.2017 10:00:00 7,9 4,3 28 15 53 29 NE 1009,6 - 0,0
23.03.2017 09:00:00 8,0 4,8 35 19 57 31 NE 1008,8 - 1,3
23.03.2017 08:00:00 6,9 4,9 32 18 50 27 E 1008,5 - 3,0
23.03.2017 07:00:00 7,2 4,3 25 13 39 21 ENE 1008,2 - 0,0
23.03.2017 06:00:00 6,5 3,8 32 18 48 26 E 1008,0 - 0,0
23.03.2017 05:00:00 6,3 4,0 37 20 50 27 E 1007,6 - 0,0
23.03.2017 04:00:00 6,5 4,3 41 22 56 31 E 1007,8 - 0,0
23.03.2017 03:00:00 6,7 4,5 45 24 57 31 E 1007,4 - 0,0
23.03.2017 02:00:00 6,5 3,5 37 20 46 25 E 1007,2 - 0,0
23.03.2017 01:00:00 6,7 3,7 38 20 49 26 E 1006,9 - 0,0
23.03.2017 00:00:00 7,0 3,8 37 20 48 26 E 1006,9 - 0,0
22.03.2017 23:00:00 7,5 3,9 32 18 54 29 ENE 1006,5 20 0,0
22.03.2017 22:00:00 7,4 3,8 30 16 45 24 ENE 1006,0 - 0,0
22.03.2017 21:00:00 6,9 3,7 19 11 28 15 NE 1005,6 - 0,0
22.03.2017 20:00:00 7,2 4,0 17 9 22 12 NNE 1005,1 20 0,0
22.03.2017 19:00:00 7,8 3,6 10 5 15 8 NNE 1004,7 - 0,0
22.03.2017 18:00:00 8,5 3,3 8 4 21 11 E 1004,6 - 0,0
22.03.2017 17:00:00 8,7 3,3 12 7 31 17 SE 1004,6 - 0,0
22.03.2017 16:00:00 8,0 3,3 13 7 24 13 S 1004,7 - 0,0
22.03.2017 15:00:00 7,8 4,0 16 9 23 12 SSW 1004,8 - 0,0
22.03.2017 14:00:00 8,4 4,2 11 6 25 13 SW 1004,7 16 0,0
22.03.2017 13:00:00 7,4 3,8 19 10 39 21 SW 1004,7 - 0,2
22.03.2017 12:00:00 5,7 2,9 31 17 42 23 W 1004,1 - 0,0
22.03.2017 11:00:00 7,8 3,5 13 7 27 15 W 1003,7 16 0,0
22.03.2017 10:00:00 7,7 3,0 19 11 33 18 W 1003,1 - 0,0
22.03.2017 09:00:00 5,9 1,6 28 15 44 24 W 1002,7 - 0,0
22.03.2017 08:00:00 6,0 3,0 31 17 46 25 WNW 1002,2 10 0,0
22.03.2017 07:00:00 6,2 4,0 34 18 54 29 WNW 1001,9 - 0,0
22.03.2017 06:00:00 6,5 4,2 32 17 49 26 W 1001,9 - 0,0
22.03.2017 05:00:00 6,3 4,1 23 12 32 18 W 1002,0 10 0,0
22.03.2017 04:00:00 6,7 5,5 26 14 51 27 WNW 1002,2 - 0,2
22.03.2017 03:00:00 6,4 5,5 23 12 46 25 WSW 1002,5 - 0,8
22.03.2017 02:00:00 6,1 5,4 39 21 52 28 W 1003,1 20 1,4
22.03.2017 01:00:00 6,7 6,1 39 21 94 51 SW 1003,6 - 5,5
22.03.2017 00:00:00 7,2 6,3 51 28 88 47 SSW 1004,7 - 1,4
21.03.2017 23:00:00 7,7 5,7 59 32 87 47 S 1006,0 20 0,8
21.03.2017 22:00:00 9,4 4,6 62 34 83 45 S 1007,2 - 0,0
21.03.2017 21:00:00 8,5 4,9 59 32 74 40 SSW 1008,5 - 0,0
21.03.2017 20:00:00 8,9 3,9 47 25 67 36 SSW 1009,5 - 0,0
21.03.2017 19:00:00 10,4 3,9 44 24 62 33 SSW 1010,4 - 0,0
21.03.2017 18:00:00 10,7 3,7 41 22 59 32 SSW 1011,6 - 0,0
21.03.2017 17:00:00 11,3 4,0 37 20 58 32 SW 1012,4 20 0,0
21.03.2017 16:00:00 10,8 2,1 39 21 52 28 SW 1013,3 - 0,0
21.03.2017 15:00:00 10,7 3,2 35 19 50 27 SW 1014,5 - 0,0
21.03.2017 14:00:00 10,6 1,7 35 19 48 26 SW 1015,0 20 0,0
21.03.2017 13:00:00 10,1 2,2 25 13 37 20 WSW 1015,6 - 0,0
21.03.2017 12:00:00 10,3 1,1 22 12 34 19 W 1015,5 - 0,0
21.03.2017 11:00:00 9,5 1,4 25 13 38 21 WNW 1015,4 20 0,0
21.03.2017 10:00:00 8,3 1,2 27 15 41 22 WNW 1015,0 - 0,0
21.03.2017 09:00:00 6,9 0,1 34 18 46 25 WNW 1014,7 - 0,0
21.03.2017 08:00:00 7,6 0,3 33 18 52 28 NW 1014,4 25 0,0
21.03.2017 07:00:00 7,5 1,3 34 18 59 32 NW 1014,1 - 0,0
21.03.2017 06:00:00 7,8 1,0 35 19 57 31 NW 1013,7 - 0,0
21.03.2017 05:00:00 8,0 2,4 35 19 54 29 NW 1013,2 15 0,0
21.03.2017 04:00:00 8,4 3,2 37 20 70 38 NW 1013,2 - 0,0
21.03.2017 03:00:00 8,2 4,6 36 20 68 37 NW 1013,2 - 0,2
21.03.2017 02:00:00 8,6 5,3 37 20 67 36 NW 1012,7 15 0,0
21.03.2017 01:00:00 9,1 6,4 39 21 54 29 NW 1012,6 - 0,0
21.03.2017 00:00:00 9,6 7,0 37 20 52 28 WNW 1011,7 - 0,0
20.03.2017 23:00:00 9,9 8,2 34 19 49 26 W 1011,4 22 0,0
20.03.2017 22:00:00 9,9 8,3 35 19 48 26 W 1011,1 - 0,0
20.03.2017 21:00:00 10,3 9,2 29 15 39 21 W 1010,6 - 0,0
20.03.2017 20:00:00 10,8 9,6 27 14 40 21 W 1010,4 22 0,0
20.03.2017 19:00:00 11,5 9,9 29 15 41 22 W 1009,9 - 0,0
20.03.2017 18:00:00 11,7 10,9 32 18 50 27 W 1009,2 - 0,0
20.03.2017 17:00:00 11,3 11,1 39 21 - - WSW 1008,9 2,0 0,2
20.03.2017 16:00:00 11,5 10,7 43 23 64 35 SW 1008,9 - 0,0
20.03.2017 15:00:00 11,6 10,8 45 24 66 36 SW 1009,2 - 0,0
20.03.2017 14:00:00 11,9 10,3 41 22 63 34 SW 1009,5 10 0,0
20.03.2017 13:00:00 12,1 10,7 46 25 67 36 SW 1009,6 - 0,0
20.03.2017 12:00:00 11,4 10,3 42 23 64 35 SW 1009,9 - 0,0
20.03.2017 11:00:00 11,1 10,0 40 22 59 32 SW 1010,0 10 0,0
20.03.2017 10:00:00 11,0 9,1 38 21 53 29 SW 1010,1 - 0,0
20.03.2017 09:00:00 - - - - - - - - - -

tt = Température de l'air
td = dewpoint
ff = Vitesse du vent
fx = gusts
dd = Direction du vent
ppp = reduced air pressure
vv = visibility
rr = Quantités de précipitations

stations d'obs. à proximité